MXD502 WMKK-VVDN

Flight info

Callsign MXD502
Flight time 2h 28m
Altitude 37000
Route PIBOS1D PIBOS R208 IGARI/K0857F370 M765 BITOD L637 TSH Q2 LATOM
Aircraft B738/M-SDE2E3FGHIRWXY/LB1

Departure

Time 2026-04-15 13:55
Airport Kuala Lumpur International Airport (WMKK)

Arrival

Time 2026-04-15 16:23
Airport Da Nang International Airport (VVDN)
Time Latitude Longitude Altitude Speed Heading
2026-04-15 13:30 2.74866 101.71222 72 ft 0 kts 56°
2026-04-15 13:42 2.74860 101.71214 72 ft 2 kts 56°
2026-04-15 13:42 2.74851 101.71200 66 ft 2 kts 56°
2026-04-15 13:42 2.74842 101.71187 68 ft 2 kts 56°
2026-04-15 13:42 2.74832 101.71174 62 ft 2 kts 34°
2026-04-15 13:43 2.74818 101.71169 65 ft 1 kts 334°
2026-04-15 13:43 2.74811 101.71173 62 ft 1 kts 319°
2026-04-15 13:48 2.74822 101.71163 60 ft 7 kts 319°
2026-04-15 13:48 2.74877 101.71121 69 ft 11 kts 326°
2026-04-15 13:48 2.74960 101.71069 66 ft 16 kts 328°
2026-04-15 13:49 2.75021 101.71028 69 ft 0 kts 327°
2026-04-15 13:49 2.75030 101.71023 68 ft 7 kts 328°
2026-04-15 13:49 2.75109 101.71047 67 ft 18 kts 53°
2026-04-15 13:49 2.75177 101.71155 69 ft 18 kts 54°
2026-04-15 13:50 2.75248 101.71256 69 ft 17 kts 57°
2026-04-15 13:50 2.75318 101.71358 70 ft 18 kts 53°
2026-04-15 13:50 2.75388 101.71460 69 ft 18 kts 57°
2026-04-15 13:50 2.75429 101.71566 66 ft 17 kts 115°
2026-04-15 13:51 2.75322 101.71652 70 ft 21 kts 146°
2026-04-15 13:51 2.75199 101.71734 69 ft 21 kts 146°
2026-04-15 13:51 2.75080 101.71812 72 ft 20 kts 146°
2026-04-15 13:51 2.74972 101.71884 76 ft 17 kts 146°
2026-04-15 13:52 2.74875 101.71950 73 ft 17 kts 146°
2026-04-15 13:52 2.74781 101.72014 70 ft 16 kts 143°
2026-04-15 13:52 2.74767 101.72087 78 ft 5 kts 64°
2026-04-15 13:52 2.74769 101.72090 69 ft 0 kts 62°
2026-04-15 13:53 2.74769 101.72091 78 ft 0 kts 62°
2026-04-15 13:53 2.74787 101.72120 70 ft 7 kts 57°
2026-04-15 13:54 2.74818 101.72163 72 ft 9 kts 50°
2026-04-15 13:54 2.74873 101.72180 77 ft 9 kts 337°
2026-04-15 13:54 2.75021 101.72088 73 ft 61 kts 326°
2026-04-15 13:54 2.75620 101.71684 66 ft 144 kts 326°
2026-04-15 13:55 2.76576 101.71033 477 ft 181 kts 326°
2026-04-15 13:55 2.77692 101.70276 1174 ft 211 kts 326°
2026-04-15 13:55 2.78936 101.69450 2134 ft 215 kts 327°
2026-04-15 13:55 2.80256 101.68706 2853 ft 219 kts 345°
2026-04-15 13:56 2.81536 101.68484 3516 ft 219 kts 344°
2026-04-15 13:56 2.82994 101.67895 4129 ft 226 kts 338°
2026-04-15 13:56 2.84481 101.67316 4756 ft 231 kts 339°
2026-04-15 13:56 2.86011 101.66758 5410 ft 238 kts 340°
2026-04-15 13:57 2.87448 101.66238 5992 ft 243 kts 339°
2026-04-15 13:57 2.89059 101.65651 6593 ft 251 kts 340°
2026-04-15 13:57 2.90683 101.65143 7147 ft 261 kts 352°
2026-04-15 13:57 2.92483 101.65393 7786 ft 268 kts 24°
2026-04-15 13:58 2.94155 101.66287 8340 ft 281 kts 30°
2026-04-15 13:58 2.95856 101.67291 8852 ft 287 kts 31°
2026-04-15 13:58 2.97577 101.68319 9363 ft 288 kts 31°
2026-04-15 13:58 2.99306 101.69347 9869 ft 290 kts 31°
2026-04-15 13:59 3.01045 101.70373 10342 ft 291 kts 31°
2026-04-15 13:59 3.02805 101.71404 10823 ft 298 kts 31°
2026-04-15 13:59 3.04630 101.72470 11335 ft 310 kts 30°
2026-04-15 13:59 3.06527 101.73576 11839 ft 321 kts 30°
2026-04-15 14:00 3.08492 101.74719 12358 ft 332 kts 30°
2026-04-15 14:00 3.10523 101.75900 12837 ft 343 kts 30°
2026-04-15 14:00 3.12614 101.77115 13322 ft 353 kts 30°
2026-04-15 14:00 3.14770 101.78368 13786 ft 362 kts 30°
2026-04-15 14:01 3.18531 101.81777 14651 ft 376 kts 56°
2026-04-15 14:01 3.19995 101.83971 15090 ft 382 kts 57°
2026-04-15 14:01 3.21458 101.86209 15623 ft 385 kts 57°
2026-04-15 14:02 3.22941 101.88454 16166 ft 388 kts 56°
2026-04-15 14:02 3.24450 101.90701 16701 ft 390 kts 56°
2026-04-15 14:02 3.25976 101.92957 17240 ft 393 kts 56°
2026-04-15 14:02 3.27531 101.95214 17791 ft 394 kts 54°
2026-04-15 14:03 3.29173 101.97416 18335 ft 396 kts 52°
2026-04-15 14:03 3.30850 101.99611 18779 ft 399 kts 52°
2026-04-15 14:03 3.32507 102.01797 19223 ft 401 kts 53°
2026-04-15 14:03 3.34209 102.04061 19683 ft 403 kts 52°
2026-04-15 14:04 3.36150 102.06038 20108 ft 406 kts 35°
2026-04-15 14:04 3.38575 102.07490 20621 ft 406 kts 30°
2026-04-15 14:04 3.41043 102.08873 21088 ft 408 kts 30°
2026-04-15 14:04 3.43509 102.10285 21574 ft 409 kts 30°
2026-04-15 14:05 3.46012 102.11655 22062 ft 410 kts 28°
2026-04-15 14:05 3.48553 102.12967 22537 ft 412 kts 27°
2026-04-15 14:05 3.51119 102.14263 22992 ft 414 kts 27°
2026-04-15 14:05 3.53695 102.15559 23455 ft 415 kts 27°
2026-04-15 14:06 3.56282 102.16865 23842 ft 417 kts 27°
2026-04-15 14:06 3.58871 102.18178 24228 ft 418 kts 27°
2026-04-15 14:06 3.61464 102.19498 24621 ft 419 kts 27°
2026-04-15 14:06 3.64070 102.20829 24960 ft 422 kts 27°
2026-04-15 14:07 3.66690 102.22170 25273 ft 425 kts 27°
2026-04-15 14:07 3.69332 102.23524 25583 ft 428 kts 27°
2026-04-15 14:07 3.71991 102.24887 25876 ft 431 kts 27°
2026-04-15 14:07 3.74664 102.26257 26177 ft 434 kts 27°
2026-04-15 14:08 3.77364 102.27641 26486 ft 436 kts 27°
2026-04-15 14:08 3.80072 102.29029 26799 ft 438 kts 27°
2026-04-15 14:08 3.82791 102.30423 27107 ft 440 kts 27°
2026-04-15 14:08 3.85523 102.31823 27425 ft 442 kts 27°
2026-04-15 14:09 3.88271 102.33232 27745 ft 444 kts 27°
2026-04-15 14:09 3.91024 102.34644 28063 ft 445 kts 27°
2026-04-15 14:09 3.93784 102.36059 28394 ft 446 kts 27°
2026-04-15 14:09 3.96549 102.37477 28728 ft 447 kts 27°
2026-04-15 14:10 3.99321 102.38898 29026 ft 449 kts 27°
2026-04-15 14:10 4.02113 102.40330 29269 ft 452 kts 27°
2026-04-15 14:10 4.04919 102.41769 29517 ft 454 kts 27°
2026-04-15 14:10 4.06787 102.42727 29688 ft 456 kts 27°
2026-04-15 14:11 4.09620 102.44181 29934 ft 458 kts 27°
2026-04-15 14:11 4.12459 102.45637 30152 ft 460 kts 27°
2026-04-15 14:11 4.15314 102.47102 30370 ft 462 kts 27°
2026-04-15 14:11 4.18176 102.48571 30585 ft 463 kts 27°
2026-04-15 14:12 4.21047 102.50044 30810 ft 465 kts 27°
2026-04-15 14:12 4.23934 102.51525 31028 ft 466 kts 27°
2026-04-15 14:12 4.26819 102.53006 31250 ft 467 kts 26°
2026-04-15 14:12 4.29714 102.54492 31480 ft 468 kts 27°
2026-04-15 14:13 4.32622 102.55985 31710 ft 469 kts 27°
2026-04-15 14:13 4.35526 102.57476 31940 ft 470 kts 27°
2026-04-15 14:13 4.38436 102.58970 32205 ft 470 kts 27°
2026-04-15 14:13 4.41342 102.60462 32472 ft 470 kts 27°
2026-04-15 14:14 4.44253 102.61957 32747 ft 469 kts 27°
2026-04-15 14:14 4.47155 102.63448 33013 ft 469 kts 27°
2026-04-15 14:14 4.50047 102.64933 33290 ft 468 kts 27°
2026-04-15 14:14 4.52946 102.66423 33566 ft 467 kts 27°
2026-04-15 14:15 4.55842 102.67911 33844 ft 467 kts 27°
2026-04-15 14:15 4.58054 102.69047 34037 ft 466 kts 27°
2026-04-15 14:15 4.60825 102.70468 34279 ft 465 kts 26°
2026-04-15 14:15 4.63307 102.71710 34483 ft 464 kts 26°
2026-04-15 14:16 4.66203 102.73133 34731 ft 463 kts 26°
2026-04-15 14:16 4.68892 102.74445 34955 ft 462 kts 26°
2026-04-15 14:16 4.71786 102.75859 35209 ft 462 kts 26°
2026-04-15 14:16 4.74659 102.77267 35469 ft 461 kts 26°
2026-04-15 14:17 4.77540 102.78684 35741 ft 460 kts 26°
2026-04-15 14:17 4.80408 102.80097 35944 ft 460 kts 26°
2026-04-15 14:17 4.83276 102.81511 36120 ft 461 kts 26°
2026-04-15 14:17 4.86160 102.82932 36301 ft 461 kts 26°
2026-04-15 14:18 4.89036 102.84361 36497 ft 462 kts 27°
2026-04-15 14:18 4.91907 102.85808 36669 ft 462 kts 27°
2026-04-15 14:18 4.94784 102.87268 36860 ft 463 kts 27°
2026-04-15 14:19 5.00568 102.90206 36884 ft 467 kts 27°
2026-04-15 14:19 5.06314 102.93117 36886 ft 463 kts 27°
2026-04-15 14:20 5.12050 102.96020 36885 ft 461 kts 27°
2026-04-15 14:20 5.17330 102.98693 36885 ft 459 kts 27°
2026-04-15 14:21 5.22611 103.01366 36884 ft 458 kts 27°
2026-04-15 14:21 5.28293 103.04244 36889 ft 458 kts 27°
2026-04-15 14:22 5.33990 103.07130 36884 ft 459 kts 27°
2026-04-15 14:22 5.39847 103.09650 36899 ft 461 kts 20°
2026-04-15 14:23 5.45912 103.11778 36886 ft 463 kts 19°
2026-04-15 14:23 5.52011 103.13923 36887 ft 465 kts 20°
2026-04-15 14:24 5.58117 103.16110 36890 ft 467 kts 20°
2026-04-15 14:24 5.64236 103.18315 36892 ft 468 kts 20°
2026-04-15 14:25 5.70374 103.20526 36893 ft 469 kts 20°
2026-04-15 14:25 5.76516 103.22728 36891 ft 469 kts 19°
2026-04-15 14:26 5.82750 103.24682 36898 ft 469 kts 17°
2026-04-15 14:26 5.89021 103.26527 36896 ft 469 kts 17°
2026-04-15 14:27 5.95260 103.28392 36894 ft 468 kts 17°
2026-04-15 14:27 6.01441 103.30270 36898 ft 467 kts 17°
2026-04-15 14:28 6.07662 103.32172 36894 ft 467 kts 17°
2026-04-15 14:28 6.13865 103.34069 36896 ft 466 kts 17°
2026-04-15 14:29 6.20067 103.35964 36897 ft 465 kts 17°
2026-04-15 14:29 6.26260 103.37857 36891 ft 465 kts 17°
2026-04-15 14:30 6.32444 103.39747 36892 ft 465 kts 17°
2026-04-15 14:30 6.38631 103.41639 36892 ft 465 kts 17°
2026-04-15 14:31 6.44818 103.43531 36894 ft 465 kts 17°
2026-04-15 14:31 6.51007 103.45424 36897 ft 465 kts 17°
2026-04-15 14:32 6.57196 103.47318 36896 ft 465 kts 17°
2026-04-15 14:32 6.63393 103.49215 36896 ft 466 kts 17°
2026-04-15 14:33 6.69591 103.51112 36900 ft 466 kts 17°
2026-04-15 14:33 6.75794 103.53012 36896 ft 466 kts 17°
2026-04-15 14:34 6.82013 103.54918 36899 ft 466 kts 17°
2026-04-15 14:34 6.88215 103.56818 36928 ft 465 kts 17°
2026-04-15 14:34 6.91218 103.57996 36943 ft 464 kts 30°
2026-04-15 14:35 6.93864 103.59843 37002 ft 463 kts 42°
2026-04-15 14:35 6.96059 103.62207 36977 ft 463 kts 56°
2026-04-15 14:35 6.97772 103.64948 37023 ft 464 kts 60°
2026-04-15 14:36 7.01047 103.70579 37009 ft 468 kts 60°
2026-04-15 14:36 7.04367 103.76231 36995 ft 470 kts 60°
2026-04-15 14:37 7.07744 103.81877 36984 ft 471 kts 59°
2026-04-15 14:37 7.11130 103.87509 36983 ft 470 kts 59°
2026-04-15 14:38 7.14501 103.93121 36987 ft 468 kts 59°
2026-04-15 14:38 7.17857 103.98715 36999 ft 465 kts 59°
2026-04-15 14:39 7.21194 104.04280 36990 ft 463 kts 59°
2026-04-15 14:39 7.24588 104.09787 36990 ft 462 kts 53°
2026-04-15 14:40 7.29060 104.14331 36990 ft 461 kts 36°
2026-04-15 14:40 7.34314 104.18018 37003 ft 461 kts 34°
2026-04-15 14:41 7.39604 104.21670 36999 ft 461 kts 35°
2026-04-15 14:41 7.44880 104.25362 37001 ft 462 kts 35°
2026-04-15 14:42 7.50145 104.29083 36997 ft 463 kts 35°
2026-04-15 14:42 7.55423 104.32823 36996 ft 464 kts 35°
2026-04-15 14:43 7.60721 104.36578 36998 ft 466 kts 35°
2026-04-15 14:43 7.66031 104.40341 36992 ft 467 kts 35°
2026-04-15 14:44 7.71344 104.44106 36997 ft 468 kts 35°
2026-04-15 14:44 7.76667 104.47880 36995 ft 468 kts 35°
2026-04-15 14:45 7.81998 104.51660 36997 ft 468 kts 35°
2026-04-15 14:45 7.87319 104.55435 36995 ft 468 kts 35°
2026-04-15 14:46 7.92648 104.59217 36990 ft 468 kts 35°
2026-04-15 14:46 7.97969 104.62994 36995 ft 467 kts 35°
2026-04-15 14:47 8.03276 104.66763 36994 ft 466 kts 35°
2026-04-15 14:47 8.08568 104.70522 36993 ft 465 kts 35°
2026-04-15 14:48 8.13854 104.74278 36993 ft 464 kts 35°
2026-04-15 14:48 8.19120 104.78021 36995 ft 463 kts 35°
2026-04-15 14:49 8.24386 104.81766 36995 ft 462 kts 35°
2026-04-15 14:49 8.29643 104.85504 36995 ft 462 kts 35°
2026-04-15 14:50 8.34892 104.89240 36996 ft 462 kts 35°
2026-04-15 14:50 8.40139 104.92975 36995 ft 462 kts 35°
2026-04-15 14:51 8.45389 104.96714 36998 ft 462 kts 35°
2026-04-15 14:51 8.50638 105.00451 37000 ft 462 kts 35°
2026-04-15 14:52 8.55914 105.04167 36994 ft 462 kts 34°
2026-04-15 14:52 8.61205 105.07875 36997 ft 463 kts 34°
2026-04-15 14:53 8.66498 105.11589 36999 ft 463 kts 34°
2026-04-15 14:53 8.71788 105.15308 36999 ft 464 kts 34°
2026-04-15 14:54 8.77083 105.19034 37002 ft 464 kts 34°
2026-04-15 14:54 8.82383 105.22764 37000 ft 464 kts 34°
2026-04-15 14:55 8.86787 105.25865 36995 ft 464 kts 34°
2026-04-15 14:55 8.92947 105.30204 37001 ft 464 kts 34°
2026-04-15 14:56 8.96392 105.32631 36994 ft 464 kts 34°
2026-04-15 14:56 9.01687 105.36362 36999 ft 463 kts 34°
2026-04-15 14:57 9.06972 105.40088 36993 ft 463 kts 34°
2026-04-15 14:57 9.12219 105.43789 36999 ft 462 kts 34°
2026-04-15 14:58 9.17489 105.47507 36991 ft 462 kts 34°
2026-04-15 14:58 9.22754 105.51223 37001 ft 461 kts 34°
2026-04-15 14:59 9.28014 105.54936 36997 ft 461 kts 34°
2026-04-15 14:59 9.33263 105.58644 36995 ft 460 kts 34°
2026-04-15 15:00 9.38504 105.62347 36994 ft 459 kts 34°
2026-04-15 15:00 9.43746 105.66052 36995 ft 459 kts 34°
2026-04-15 15:01 9.48985 105.69757 36997 ft 459 kts 34°
2026-04-15 15:01 9.54215 105.73457 36996 ft 459 kts 34°
2026-04-15 15:02 9.59458 105.77167 36991 ft 459 kts 34°
2026-04-15 15:02 9.64696 105.80875 36999 ft 459 kts 34°
2026-04-15 15:03 9.69937 105.84588 37005 ft 459 kts 34°
2026-04-15 15:03 9.75174 105.88299 37001 ft 460 kts 34°
2026-04-15 15:04 9.80426 105.92021 37001 ft 460 kts 34°
2026-04-15 15:04 9.85433 105.95567 36997 ft 460 kts 34°
2026-04-15 15:05 9.90646 105.99262 37000 ft 460 kts 34°
2026-04-15 15:05 9.95893 106.02984 37000 ft 460 kts 34°
2026-04-15 15:06 10.03760 106.08567 37002 ft 460 kts 34°
2026-04-15 15:06 10.09006 106.12293 36996 ft 460 kts 34°
2026-04-15 15:07 10.14251 106.16018 36998 ft 460 kts 34°
2026-04-15 15:07 10.19498 106.19748 36991 ft 460 kts 34°
2026-04-15 15:08 10.24733 106.23471 36996 ft 460 kts 34°
2026-04-15 15:08 10.29959 106.27217 36989 ft 460 kts 35°
2026-04-15 15:09 10.35147 106.31006 36988 ft 459 kts 35°
2026-04-15 15:09 10.40336 106.34802 36993 ft 459 kts 35°
2026-04-15 15:10 10.45485 106.38562 36990 ft 459 kts 35°
2026-04-15 15:10 10.50667 106.42344 36988 ft 459 kts 35°
2026-04-15 15:11 10.55851 106.46128 36986 ft 459 kts 35°
2026-04-15 15:11 10.60900 106.49815 36986 ft 459 kts 34°
2026-04-15 15:12 10.66084 106.53602 36983 ft 459 kts 35°
2026-04-15 15:12 10.71271 106.57395 36983 ft 459 kts 35°
2026-04-15 15:13 10.76456 106.61188 36981 ft 459 kts 35°
2026-04-15 15:13 10.81642 106.64982 36985 ft 459 kts 35°
2026-04-15 15:14 10.86787 106.68827 36991 ft 459 kts 36°
2026-04-15 15:14 10.91913 106.72719 36978 ft 460 kts 36°
2026-04-15 15:15 10.97036 106.76606 36980 ft 459 kts 36°
2026-04-15 15:15 11.02163 106.80487 36983 ft 459 kts 36°
2026-04-15 15:16 11.07254 106.84339 36982 ft 459 kts 36°
2026-04-15 15:16 11.12383 106.88221 36984 ft 459 kts 36°
2026-04-15 15:17 11.17514 106.92108 36986 ft 460 kts 36°
2026-04-15 15:17 11.22650 106.96000 36975 ft 460 kts 36°
2026-04-15 15:18 11.27780 106.99889 36989 ft 460 kts 36°
2026-04-15 15:18 11.32909 107.03780 36988 ft 460 kts 36°
2026-04-15 15:19 11.38037 107.07675 36992 ft 459 kts 36°
2026-04-15 15:19 11.43150 107.11579 36988 ft 459 kts 36°
2026-04-15 15:20 11.48265 107.15493 36996 ft 460 kts 36°
2026-04-15 15:20 11.53377 107.19403 36995 ft 460 kts 36°
2026-04-15 15:21 11.58504 107.23326 37006 ft 461 kts 36°
2026-04-15 15:21 11.63597 107.27224 37006 ft 461 kts 36°
2026-04-15 15:22 11.68731 107.31155 37000 ft 462 kts 36°
2026-04-15 15:22 11.73901 107.35116 37019 ft 461 kts 36°
2026-04-15 15:23 11.78998 107.39023 37011 ft 462 kts 36°
2026-04-15 15:23 11.84128 107.42958 37029 ft 461 kts 36°
2026-04-15 15:24 11.89261 107.46896 37030 ft 461 kts 36°
2026-04-15 15:24 11.94394 107.50836 37038 ft 461 kts 36°
2026-04-15 15:25 11.99522 107.54774 37034 ft 462 kts 36°
2026-04-15 15:25 12.04659 107.58721 37047 ft 462 kts 37°
2026-04-15 15:26 12.09796 107.62671 37050 ft 462 kts 37°
2026-04-15 15:26 12.14929 107.66619 37039 ft 462 kts 37°
2026-04-15 15:27 12.20063 107.70571 37052 ft 461 kts 37°
2026-04-15 15:27 12.25188 107.74517 37043 ft 461 kts 37°
2026-04-15 15:28 12.30334 107.78440 37031 ft 461 kts 32°
2026-04-15 15:28 12.33168 107.79953 37048 ft 459 kts 20°
2026-04-15 15:28 12.36220 107.80905 37030 ft 459 kts 10°
2026-04-15 15:29 12.42569 107.81328 37040 ft 458 kts 360°
2026-04-15 15:29 12.48949 107.81362 37028 ft 459 kts 360°
2026-04-15 15:30 12.55337 107.81428 37035 ft 459 kts
2026-04-15 15:30 12.61736 107.81537 37017 ft 461 kts
2026-04-15 15:31 12.68112 107.81662 37011 ft 461 kts
2026-04-15 15:31 12.74553 107.81788 37018 ft 462 kts
2026-04-15 15:32 12.80980 107.81913 37006 ft 462 kts
2026-04-15 15:32 12.87410 107.82037 37018 ft 462 kts
2026-04-15 15:33 12.93849 107.82162 37015 ft 463 kts
2026-04-15 15:33 13.00299 107.82286 36619 ft 462 kts
2026-04-15 15:34 13.03494 107.82348 36361 ft 458 kts
2026-04-15 15:34 13.06673 107.82410 36074 ft 457 kts
2026-04-15 15:34 13.09853 107.82471 35813 ft 458 kts
2026-04-15 15:34 13.13043 107.82533 35561 ft 459 kts
2026-04-15 15:35 13.16218 107.82594 35321 ft 459 kts
2026-04-15 15:35 13.19389 107.82656 35344 ft 454 kts
2026-04-15 15:35 13.25748 107.82778 35116 ft 464 kts
2026-04-15 15:36 13.28999 107.82841 34893 ft 469 kts
2026-04-15 15:36 13.32264 107.82905 34613 ft 470 kts
2026-04-15 15:36 13.35536 107.82973 34308 ft 471 kts
2026-04-15 15:36 13.38818 107.83045 33996 ft 472 kts
2026-04-15 15:37 13.42105 107.83119 33657 ft 472 kts
2026-04-15 15:37 13.45391 107.83193 33307 ft 471 kts
2026-04-15 15:37 13.48642 107.83266 32946 ft 465 kts
2026-04-15 15:37 13.51868 107.83338 32609 ft 462 kts
2026-04-15 15:38 13.55079 107.83409 32271 ft 463 kts
2026-04-15 15:38 13.58297 107.83480 31942 ft 462 kts
2026-04-15 15:38 13.61499 107.83551 31607 ft 459 kts
2026-04-15 15:38 13.64693 107.83621 31282 ft 459 kts
2026-04-15 15:39 13.67891 107.83692 30964 ft 460 kts
2026-04-15 15:39 13.71079 107.83762 30643 ft 456 kts
2026-04-15 15:39 13.74230 107.83832 30317 ft 451 kts
2026-04-15 15:39 13.77352 107.83901 30014 ft 449 kts
2026-04-15 15:40 13.80481 107.83970 29645 ft 450 kts
2026-04-15 15:40 13.83607 107.84039 29285 ft 450 kts
2026-04-15 15:40 13.86737 107.84108 28918 ft 448 kts
2026-04-15 15:40 13.89793 107.84176 28555 ft 442 kts
2026-04-15 15:41 13.92861 107.84244 28208 ft 440 kts
2026-04-15 15:41 13.95922 107.84312 27852 ft 439 kts
2026-04-15 15:41 13.98959 107.84379 27512 ft 435 kts
2026-04-15 15:41 14.01960 107.84430 27160 ft 427 kts 360°
2026-04-15 15:42 14.04923 107.84440 26825 ft 423 kts 359°
2026-04-15 15:42 14.07865 107.84433 26492 ft 424 kts 359°
2026-04-15 15:42 14.10823 107.84421 26165 ft 425 kts 359°
2026-04-15 15:42 14.13787 107.84411 25847 ft 426 kts 359°
2026-04-15 15:43 14.16754 107.84404 25528 ft 426 kts 359°
2026-04-15 15:43 14.19704 107.84401 25203 ft 421 kts 360°
2026-04-15 15:43 14.22616 107.84399 24883 ft 415 kts 360°
2026-04-15 15:43 14.25485 107.84399 24566 ft 411 kts 360°
2026-04-15 15:44 14.28330 107.84399 24261 ft 407 kts
2026-04-15 15:44 14.30201 107.84399 24069 ft 404 kts
2026-04-15 15:44 14.33944 107.84399 23656 ft 400 kts
2026-04-15 15:44 14.35783 107.84399 23469 ft 398 kts
2026-04-15 15:45 14.38546 107.84399 23132 ft 395 kts
2026-04-15 15:45 14.41280 107.84400 22799 ft 392 kts
2026-04-15 15:45 14.43996 107.84400 22475 ft 389 kts
2026-04-15 15:45 14.46690 107.84400 22148 ft 386 kts
2026-04-15 15:46 14.49373 107.84400 21828 ft 384 kts
2026-04-15 15:46 14.52039 107.84400 21502 ft 382 kts
2026-04-15 15:46 14.54690 107.84399 21198 ft 380 kts
2026-04-15 15:46 14.57329 107.84399 20888 ft 378 kts
2026-04-15 15:47 14.59949 107.84400 20578 ft 376 kts
2026-04-15 15:47 14.62561 107.84400 20265 ft 374 kts
2026-04-15 15:47 14.65153 107.84399 19974 ft 371 kts
2026-04-15 15:47 14.67732 107.84400 19681 ft 371 kts
2026-04-15 15:48 14.70312 107.84400 19397 ft 372 kts
2026-04-15 15:48 14.72913 107.84400 19114 ft 374 kts
2026-04-15 15:48 14.75516 107.84400 18818 ft 373 kts
2026-04-15 15:48 14.78101 107.84400 18541 ft 371 kts
2026-04-15 15:49 14.80677 107.84400 18251 ft 369 kts
2026-04-15 15:49 14.83238 107.84400 17915 ft 367 kts
2026-04-15 15:49 14.85782 107.84400 17588 ft 363 kts
2026-04-15 15:49 14.88289 107.84532 17235 ft 359 kts 12°
2026-04-15 15:50 14.90650 107.85284 16939 ft 353 kts 20°
2026-04-15 15:50 14.92939 107.86158 16622 ft 349 kts 21°
2026-04-15 15:50 14.95202 107.87043 16293 ft 347 kts 21°
2026-04-15 15:50 14.97449 107.87918 15984 ft 344 kts 20°
2026-04-15 15:51 14.99686 107.88777 15676 ft 341 kts 20°
2026-04-15 15:51 15.01905 107.89620 15367 ft 339 kts 20°
2026-04-15 15:51 15.04113 107.90453 15062 ft 337 kts 20°
2026-04-15 15:51 15.06311 107.91279 14758 ft 335 kts 20°
2026-04-15 15:52 15.08491 107.92096 14461 ft 332 kts 20°
2026-04-15 15:52 15.10649 107.92905 14162 ft 329 kts 19°
2026-04-15 15:52 15.12763 107.93697 13880 ft 326 kts 20°
2026-04-15 15:52 15.14901 107.94498 13550 ft 324 kts 19°
2026-04-15 15:53 15.17011 107.95288 13210 ft 320 kts 19°
2026-04-15 15:53 15.19091 107.96068 12887 ft 317 kts 19°
2026-04-15 15:53 15.21157 107.96842 12574 ft 314 kts 19°
2026-04-15 15:53 15.23200 107.97607 12278 ft 311 kts 19°
2026-04-15 15:54 15.25221 107.98365 11988 ft 307 kts 19°
2026-04-15 15:54 15.27221 107.99114 11693 ft 304 kts 19°
2026-04-15 15:54 15.29196 107.99857 11418 ft 301 kts 19°
2026-04-15 15:54 15.31153 108.00594 11148 ft 298 kts 19°
2026-04-15 15:55 15.33089 108.01323 10924 ft 295 kts 19°
2026-04-15 15:55 15.35008 108.02047 10695 ft 292 kts 19°
2026-04-15 15:55 15.36913 108.02765 10468 ft 290 kts 19°
2026-04-15 15:55 15.38799 108.03472 10252 ft 289 kts 19°
2026-04-15 15:56 15.40686 108.04181 10021 ft 286 kts 19°
2026-04-15 15:56 15.42549 108.04910 9840 ft 288 kts 22°
2026-04-15 15:56 15.44338 108.05787 9627 ft 290 kts 25°
2026-04-15 15:56 15.46140 108.06741 9395 ft 291 kts 26°
2026-04-15 15:57 15.47955 108.07709 9126 ft 288 kts 26°
2026-04-15 15:57 15.49729 108.08648 8905 ft 284 kts 26°
2026-04-15 15:57 15.51450 108.09550 8699 ft 279 kts 26°
2026-04-15 15:57 15.53170 108.10447 8521 ft 276 kts 25°
2026-04-15 15:58 15.54882 108.11335 8348 ft 273 kts 25°
2026-04-15 15:58 15.56572 108.12209 8181 ft 269 kts 26°
2026-04-15 15:58 15.58223 108.13068 8066 ft 263 kts 26°
2026-04-15 15:58 15.59856 108.13912 7998 ft 261 kts 25°
2026-04-15 15:59 15.61485 108.14755 7876 ft 261 kts 25°
2026-04-15 15:59 15.63114 108.15597 7773 ft 262 kts 26°
2026-04-15 15:59 15.64749 108.16445 7714 ft 265 kts 25°
2026-04-15 15:59 15.66418 108.17307 7597 ft 269 kts 25°
2026-04-15 16:00 15.68108 108.18182 7396 ft 275 kts 25°
2026-04-15 16:00 15.69827 108.19074 7030 ft 278 kts 26°
2026-04-15 16:00 15.71538 108.19966 6692 ft 273 kts 25°
2026-04-15 16:00 15.73225 108.20838 6318 ft 269 kts 26°
2026-04-15 16:01 15.74708 108.21606 5994 ft 265 kts 26°
2026-04-15 16:01 15.76347 108.22456 5598 ft 261 kts 26°
2026-04-15 16:01 15.77972 108.23287 5247 ft 261 kts 22°
2026-04-15 16:01 15.79743 108.23593 4874 ft 258 kts 358°
2026-04-15 16:02 15.81516 108.23356 4556 ft 256 kts 351°
2026-04-15 16:02 15.83250 108.23022 4247 ft 250 kts 349°
2026-04-15 16:02 15.84914 108.22695 3937 ft 236 kts 350°
2026-04-15 16:02 15.86475 108.22443 3614 ft 220 kts 352°
2026-04-15 16:03 15.87957 108.22234 3356 ft 212 kts 352°
2026-04-15 16:03 15.89415 108.22048 3104 ft 204 kts 352°
2026-04-15 16:03 15.90769 108.21832 3107 ft 196 kts 348°
2026-04-15 16:03 15.92086 108.21629 3073 ft 185 kts 353°
2026-04-15 16:04 15.93421 108.21502 2762 ft 200 kts 354°
2026-04-15 16:04 15.94772 108.21282 2386 ft 202 kts 349°
2026-04-15 16:04 15.96171 108.21086 1989 ft 201 kts 353°
2026-04-15 16:04 15.97534 108.20938 1629 ft 194 kts 352°
2026-04-15 16:05 15.98842 108.20850 1289 ft 187 kts 358°
2026-04-15 16:05 16.00101 108.20715 832 ft 181 kts 350°
2026-04-15 16:05 16.01284 108.20481 497 ft 164 kts 352°
2026-04-15 16:05 16.02349 108.20337 239 ft 145 kts 355°
2026-04-15 16:06 16.03339 108.20227 466 ft 129 kts 356°
2026-04-15 16:06 16.04224 108.20150 970 ft 144 kts 355°
2026-04-15 16:06 16.05295 108.20117 1428 ft 164 kts 355°
2026-04-15 16:06 16.06460 108.20019 1708 ft 186 kts 354°
2026-04-15 16:07 16.07823 108.19878 2644 ft 212 kts 351°
2026-04-15 16:07 16.09402 108.19639 2648 ft 230 kts 352°
2026-04-15 16:07 16.12433 108.19203 2892 ft 207 kts 352°
2026-04-15 16:08 16.13824 108.19026 3053 ft 197 kts 353°
2026-04-15 16:08 16.15248 108.18842 3143 ft 220 kts 353°
2026-04-15 16:08 16.16799 108.18638 3239 ft 226 kts 353°
2026-04-15 16:08 16.18366 108.18502 3395 ft 228 kts
2026-04-15 16:09 16.19748 108.19213 3591 ft 223 kts 50°
2026-04-15 16:09 16.20408 108.20644 3920 ft 228 kts 75°
2026-04-15 16:09 16.20831 108.22279 3996 ft 236 kts 77°
2026-04-15 16:09 16.21225 108.23935 4013 ft 237 kts 77°
2026-04-15 16:10 16.21616 108.25614 4025 ft 240 kts 78°
2026-04-15 16:10 16.21968 108.27305 4017 ft 239 kts 79°
2026-04-15 16:10 16.22307 108.28993 4014 ft 237 kts 79°
2026-04-15 16:10 16.22644 108.30670 4016 ft 236 kts 79°
2026-04-15 16:11 16.22781 108.32352 3998 ft 234 kts 101°
2026-04-15 16:11 16.22383 108.33981 4021 ft 233 kts 105°
2026-04-15 16:11 16.21890 108.35582 4004 ft 234 kts 121°
2026-04-15 16:11 16.20682 108.36639 4181 ft 231 kts 159°
2026-04-15 16:12 16.19097 108.37015 4403 ft 238 kts 168°
2026-04-15 16:12 16.17448 108.37337 4585 ft 243 kts 168°
2026-04-15 16:12 16.15789 108.37652 4756 ft 243 kts 168°
2026-04-15 16:12 16.14188 108.37952 4915 ft 241 kts 168°
2026-04-15 16:13 16.12530 108.38263 5012 ft 245 kts 168°
2026-04-15 16:13 16.10875 108.38574 5018 ft 246 kts 168°
2026-04-15 16:13 16.09196 108.38888 5007 ft 244 kts 168°
2026-04-15 16:13 16.07526 108.39202 5018 ft 244 kts 168°
2026-04-15 16:14 16.05848 108.39518 5026 ft 245 kts 168°
2026-04-15 16:14 16.04166 108.39836 5025 ft 246 kts 168°
2026-04-15 16:14 16.02481 108.40154 5020 ft 246 kts 168°
2026-04-15 16:14 16.00793 108.40473 5021 ft 246 kts 168°
2026-04-15 16:15 15.99107 108.40791 5017 ft 246 kts 168°
2026-04-15 16:15 15.97426 108.41111 5020 ft 246 kts 168°
2026-04-15 16:15 15.95748 108.41430 5022 ft 246 kts 168°
2026-04-15 16:15 15.94045 108.41754 5030 ft 250 kts 168°
2026-04-15 16:16 15.92341 108.42078 4898 ft 249 kts 168°
2026-04-15 16:16 15.90640 108.42382 4679 ft 247 kts 174°
2026-04-15 16:16 15.88994 108.42006 4425 ft 244 kts 211°
2026-04-15 16:16 15.87932 108.40691 4205 ft 238 kts 249°
2026-04-15 16:17 15.87564 108.39055 4009 ft 228 kts 258°
2026-04-15 16:17 15.87274 108.37446 3791 ft 226 kts 258°
2026-04-15 16:17 15.86993 108.35832 3606 ft 229 kts 258°
2026-04-15 16:17 15.86722 108.34196 3396 ft 232 kts 259°
2026-04-15 16:18 15.86444 108.32565 3092 ft 228 kts 258°
2026-04-15 16:18 15.86182 108.31007 3059 ft 213 kts 258°
2026-04-15 16:18 15.85942 108.29532 3027 ft 201 kts 261°
2026-04-15 16:18 15.86197 108.28136 2952 ft 199 kts 306°
2026-04-15 16:19 15.87214 108.27198 3160 ft 202 kts 322°
2026-04-15 16:19 15.88328 108.26228 3042 ft 206 kts 317°
2026-04-15 16:19 15.89397 108.25304 3036 ft 199 kts 322°
2026-04-15 16:19 15.90578 108.24515 2768 ft 204 kts 327°
2026-04-15 16:20 15.91791 108.23787 2464 ft 200 kts 330°
2026-04-15 16:20 15.93027 108.23096 2167 ft 202 kts 327°
2026-04-15 16:20 15.94189 108.22335 1969 ft 198 kts 327°
2026-04-15 16:20 15.95376 108.21581 1627 ft 198 kts 330°
2026-04-15 16:21 15.96570 108.20996 1496 ft 185 kts 340°
2026-04-15 16:21 15.97793 108.20706 1236 ft 173 kts 356°
2026-04-15 16:21 15.98925 108.20678 1111 ft 156 kts 353°
2026-04-15 16:21 16.00002 108.20485 730 ft 155 kts 351°
2026-04-15 16:22 16.01036 108.20331 480 ft 149 kts 351°
2026-04-15 16:22 16.02077 108.20176 259 ft 151 kts 352°
2026-04-15 16:22 16.03112 108.20032 83 ft 148 kts 352°
2026-04-15 16:22 16.04074 108.19898 32 ft 129 kts 351°
2026-04-15 16:23 16.04768 108.19781 34 ft 55 kts 351°
2026-04-15 16:23 16.04880 108.19830 34 ft 16 kts 79°
2026-04-15 16:23 16.04889 108.19881 34 ft 0 kts 81°
2026-04-15 16:24 16.04889 108.19886 34 ft 2 kts 81°
2026-04-15 16:24 16.04895 108.19925 32 ft 9 kts 81°
2026-04-15 16:24 16.04905 108.20016 32 ft 18 kts 84°
2026-04-15 16:25 16.04977 108.20096 33 ft 18 kts 356°
2026-04-15 16:25 16.05096 108.20081 33 ft 17 kts 352°
2026-04-15 16:25 16.05190 108.20078 33 ft 11 kts 34°
2026-04-15 16:25 16.05215 108.20150 34 ft 11 kts 85°
2026-04-15 16:26 16.05219 108.20191 34 ft 1 kts 82°
2026-04-15 16:26 16.05219 108.20193 34 ft 0 kts 83°